Regional Weather Roundup
Issued by NWS

Home | Current Version | Previous Version | Graphics & Text | Print | Product List | Glossary Off
Versions: 1 2 3 4 5 6 7 8 9 10 11 12 13 14 15 16 17 18 19 20 21 22 23 24 25 26 27 28 29 30 31 32 33 34 35 36 37 38 39 40 41 42 43 44 45 46 47 48 49 50

000
ASUS43 KTOP 041159
RWRKS

WEATHER ROUNDUP FOR KANSAS
NATIONAL WEATHER SERVICE GOODLAND KS
700 AM CDT SAT JUL 04 2015

NOTE:  "FAIR" INDICATES FEW OR NO CLOUDS BELOW 12,000 FEET WITH NO
SIGNIFICANT WEATHER AND/OR OBSTRUCTIONS TO VISIBILITY.

KSZ001>006-013>018-027>032-041>047-041300-
NORTHWEST KANSAS

CITY           SKY/WX    TMP DP  RH WIND       PRES   REMARKS
GOODLAND       CLEAR     63  59  87 S13       30.00S FOG
6HR MIN TEMP:  62; 6HR MAX TEMP:  68;

HAYS           CLEAR     63  55  77 S6        30.01S
HILL CITY      CLEAR     62  60  93 E5        30.00S FOG
6HR MIN TEMP:  62; 6HR MAX TEMP:  66;

RUSSELL        PTCLDY    64  63  96 S7        30.00R
6HR MIN TEMP:  63; 6HR MAX TEMP:  67;

$$

KSZ061>065-074>080-084>089-041300-
SOUTHWEST KANSAS

CITY           SKY/WX    TMP DP  RH WIND       PRES   REMARKS
DODGE CITY     CLEAR     63  60  90 SE8       30.02S FOG
6HR MIN TEMP:  63; 6HR MAX TEMP:  67;

ELKHART          N/A     61  55  81 SE9         N/A
GARDEN CITY    PTCLDY    64  62  93 SE7       30.01S
6HR MIN TEMP:  63; 6HR MAX TEMP:  68; 6HR PCP:  0.61;

GREAT BEND     PTCLDY    66  61  82 SE6       30.02S
LIBERAL        PTCLDY    68  63  83 SW5       30.06R
$$

KSZ066>073-081>083-090>101-041300-
SOUTHEAST KANSAS

CITY           SKY/WX    TMP DP  RH WIND       PRES   REMARKS
CHANUTE        PTCLDY    65  62  90 CALM      29.99R
6HR MIN TEMP:  64; 6HR MAX TEMP:  71;

COFFEYVILLE    CLEAR     68  65  90 N6        29.98R
6HR MIN TEMP:  67; 6HR MAX TEMP:  72;

HUTCHINSON     CLEAR     62  60  93 CALM      29.99F FOG
6HR MIN TEMP:  62; 6HR MAX TEMP:  67;

MEDICINE LODGE   N/A     68  64  87 E7        29.99S
NEWTON         CLEAR     63  55  77 E5        30.02S
PARSONS        PTCLDY    67  65  93 CALM      29.99R
6HR MIN TEMP:  67; 6HR MAX TEMP:  72;

WICHITA INTL   PTCLDY    64  61  90 S3        29.98F
6HR MIN TEMP:  64; 6HR MAX TEMP:  72;

WICHITA JABRA  CLEAR     62  60  93 E5        29.99S
6HR MIN TEMP:  60; 6HR MAX TEMP:  66;

WINFIELD       CLEAR     67  64  90 E5        30.00R
6HR MIN TEMP:  63; 6HR MAX TEMP:  71;

$$

KSZ007>012-019>026-033>040-048>060-102>105-041300-
NORTHEAST KANSAS

CITY           SKY/WX    TMP DP  RH WIND       PRES   REMARKS
CONCORDIA      CLEAR     60  56  86 SE3       30.00S
6HR MIN TEMP:  57; 6HR MAX TEMP:  65;

EMPORIA        CLEAR     58  57  97 SW3       30.00R FOG
6HR MIN TEMP:  58; 6HR MAX TEMP:  65;

LAWRENCE       CLEAR     59  58  96 E3        30.00S FOG
6HR MIN TEMP:  57; 6HR MAX TEMP:  62;

MANHATTAN      CLEAR     59  58  96 CALM      30.00R FOG
6HR MIN TEMP:  58; 6HR MAX TEMP:  63; 6HR PCP: TRACE;

OLATHE IND     CLEAR     62  59  90 CALM      30.01R
6HR MIN TEMP:  61; 6HR MAX TEMP:  67;

OLATHE EXE     CLEAR     62  60  93 CALM      30.00R
6HR MIN TEMP:  61; 6HR MAX TEMP:  67;

SALINA         CLEAR     65  58  78 CALM      30.00S
6HR MIN TEMP:  62; 6HR MAX TEMP:  71;

TOPEKA BILLARD PTCLDY    61  59  93 CALM      30.00R FOG
6HR MIN TEMP:  60; 6HR MAX TEMP:  64;

TOPEKA FORBES  CLEAR     62  59  90 CALM      30.00R FOG
6HR MIN TEMP:  60; 6HR MAX TEMP:  67;

$$



USA.gov is the U.S. government's official web portal to all federal, state and local government web resources and services.